Location: Cabri�res
(43.7840°N, 5.4986°E)
Time: 19:25:57
(UTC+00:00)

Terra - Pass Details

Date: 09 April 2020
Orbit: 701 x 703 km, 98.2° (Epoch: 03 June)

Event Time Altitude Azimuth Distance (km) Brightness Sun altitude
Exits shadow 22:08:19 29° 316° (NW) 1,278 3.6 -34.2°
Drops below altitude 10° 22:10:55 10° 335° (NNW) 2,180 5.2 -34.5°
Sets 22:13:16 0° 341° (NNW) 3,104 6.2 -34.6°
